Regional Weather Roundup
Issued by NWS

Home | Current Version | Previous Version | Text Only | Print | Product List | Glossary Off
Versions: 1 2 3 4 5 6 7 8 9 10 11 12 13 14 15 16 17 18 19 20 21 22 23 24 25 26 27 28 29 30 31 32 33 34 35 36 37 38 39 40 41 42 43 44 45 46 47 48 49 50

656
ASUS43 KIND 082209
RWRIN

WEATHER ROUNDUP FOR INDIANA
NATIONAL WEATHER SERVICE INDIANAPOLIS IN
500 PM EST MON FEB 08 2016

NOTE: "FAIR" INDICATES FEW OR NO CLOUDS BELOW 12,000 FEET WITH NO
SIGNIFICANT WEATHER AND/OR OBSTRUCTIONS TO VISIBILITY.

* - STATION DOES NOT REPORT WEATHER SUCH AS PRECIPITATION OR FOG.

+ - STATION NOT QUALITY CONTROLLED BY THE NATIONAL WEATHER SERVICE.
    USE DATA WITH CAUTION...ESPECIALLY DEWPOINT AND RELATIVE
    HUMIDITY OBSERVATIONS.

INZ001>003-010>013-019-020-082300-
NORTHWEST INDIANA

CITY           SKY/WX    TMP DP  RH WIND       PRES   REMARKS
GARY /AIRPORT/ CLOUDY    30  21  69 W14       29.72  WCI  20
KNOX *+        CLOUDY    30  25  80 W13       29.70R WCI  20
LA PORTE +     CLOUDY    32  26  77 NW7       29.69R WCI  26
MICHIGAN CITY+ CLOUDY    30  27  86 W9        29.70R WCI  22
MONTICELLO +   FLURRIES  27  18  69 W10G17    29.72R WCI  17
RENSSELAER +   CLOUDY    28  19  69 W13       29.73R WCI  18
VALPARAISO     CLOUDY    29  22  75 W14       29.70R WCI  18

$$

LMZ046-743>745-082300-
SOUTHERN LAKE MICHIGAN

STATION/POSITION TIME  TEMP    WIND        PRES    WAVE
                       AIR SEA DIR/SP/G            HT
                 (UTC) (F)     (DEG/KT/KT) (MB)    (FT)
BURNS HARBOR     2100   30     280/ 13/ 15 1006.1R
MICHIGAN CITY    2100   30     260/ 15/ 17   N/A

$$

INZ004-005-014>016-021>024-082300-
NORTH CENTRAL INDIANA

CITY           SKY/WX    TMP DP  RH WIND       PRES   REMARKS
ELKHART          N/A     32  27  80 MISG      29.66R
GOSHEN         LGT SNOW  31  27  85 W13       29.66R FOG     WCI  21
LOGANSPORT +   FLURRIES  28  21  74 W15       29.71R WCI  17
PERU/GRISSOM   FLURRIES  28  24  86 W16       29.68R WCI  16
ROCHESTER +    FLURRIES  32  23  69 W9        29.69R WCI  24
SOUTH BEND     CLOUDY    29  25  85 W14       29.68R WCI  18
WARSAW +       CLOUDY    30  27  86 W9G16     29.67R WCI  22

$$

INZ006>009-017-018-025>027-082300-
NORTHEAST INDIANA

CITY           SKY/WX    TMP DP  RH WIND       PRES   REMARKS
ANGOLA *+      CLOUDY    34  28  80 NW7       29.62R WCI  28
AUBURN +       CLOUDY    36  28  75 W10       29.63R
FORT WAYNE     CLOUDY    33  29  85 W14       29.65R WCI  23
HUNTINGTON +   CLOUDY    30  26  86 W9        29.67R FOG     WCI  22

$$

INZ028-029-035-036-043>045-051>053-082300-
WEST CENTRAL INDIANA

CITY           SKY/WX    TMP DP  RH WIND       PRES   REMARKS
GREENCASTLE +  CLOUDY    27  14  59 W10G20    29.75R WCI  17
LAFAYETTE      CLOUDY    25  18  74 W15       29.74S WCI  13
TERRE HAUTE    LGT SNOW  25  17  72 NW12G21   29.80R WCI  14

$$

INZ030>032-037>040-046>048-054>057-064-065-082300-
CENTRAL INDIANA

CITY           SKY/WX    TMP DP  RH WIND       PRES   REMARKS
COLUMBUS       LGT SNOW  28  28 100 W14       29.73R FOG     WCI  17
FISHERS *+     CLOUDY    27  25  93 W14       29.72  WCI  15
FRANKFORT +    FLURRIES  27  17  66 W18       29.74R WCI  13
GREENWOOD *+   CLOUDY    28  27  93 W13G23    29.72  WCI  18
INDIANAPOLIS   LGT SNOW  27  23  85 W17       29.72R FOG     WCI  14
-EAGLE CREEK   LGT SNOW  27  23  85 NW14      29.72R FOG     WCI  16
KOKOMO *+      CLOUDY    28  21  74 W22G28    29.70R WCI  15
MARION +       CLOUDY    29  21  71 NW16      29.69R HAZE    WCI  17
MT COMFORT *+  CLOUDY    28  23  80 W18G24    29.70R WCI  16
SHELBYVILLE    LGT SNOW  30  25  81 W14       29.70R VSB 3/4 WCI  19
ZIONSVILLE +   LGT SNOW  26  22  86 W14G20    29.71R WCI  14

$$

INZ033-034-041-042-049-050-058-059-082300-
EAST CENTRAL INDIANA

CITY           SKY/WX    TMP DP  RH WIND       PRES   REMARKS
MUNCIE         CLOUDY    31  26  82 W13       29.67R WCI  21

$$

INZ060-061-067>069-081>083-085>088-082300-
SOUTHWEST INDIANA

CITY           SKY/WX    TMP DP  RH WIND       PRES   REMARKS
EVANSVILLE     CLOUDY    32  19  58 NW15G23   29.85R WCI  22
HUNTINGBURG *+ CLOUDY    28  21  74 NW14G23   29.82R WCI  17
WASHINGTON +   LGT SNOW  28  24  87 NW14      29.81R WCI  16

$$

INZ062-063-066-070>080-084-089>092-082300-
SOUTH CENTRAL AND SOUTHEAST INDIANA

CITY           SKY/WX    TMP DP  RH WIND       PRES   REMARKS
BEDFORD +      LGT SNOW  28  25  86 W6        29.77R WCI  22
BLOOMINGTON    LGT SNOW  26  22  84 W8        29.75R FOG     WCI  18
MADISON *+     CLOUDY    32  30  93 W16G22    29.72R WCI  21
NORTH VERNON + SNOW     N/A N/A N/A W13G18    29.71R VSB 1/2
SEYMOUR +      LGT SNOW  32  27  80 W14G22    29.74R WCI  22

$$





USA.gov is the U.S. government's official web portal to all federal, state and local government web resources and services.